This is the latest recevied weather packets stored in our database for station/object KO4ZGL-13. If no packets are shown the sender has not sent any weather packets the latest 1 day(s).
| Time | Temp. | Humidity | Pressure | Rain* | Wind** | Luminosity | Snow |
|---|---|---|---|---|---|---|---|
| 1778072506 | 22.22° C | 84% | 1017 hPa | 0 mm | - | 346 W/m² | - |
| 1778071297 | 20.56° C | 89% | 1016.6 hPa | 0 mm | - | 84 W/m² | - |
| 1778070994 | 20.56° C | 91% | 1017.1 hPa | 0 mm | - | 73 W/m² | - |
| 1778070693 | 20° C | 93% | 1016.7 hPa | 0 mm | - | 64 W/m² | - |
| 1778069179 | 17.22° C | 98% | 1016.6 hPa | 0 mm | - | 40 W/m² | - |
| 1778067969 | 15.56° C | 98% | 1016.5 hPa | 0 mm | - | 35 W/m² | - |
| 1778067062 | 14.44° C | 98% | 1016.4 hPa | 0 mm | - | 34 W/m² | - |
| 1778066758 | 13.89° C | 98% | 1016.4 hPa | 0 mm | - | 27 W/m² | - |
| 1778066456 | 13.89° C | 98% | 1016.5 hPa | 0 mm | - | 25 W/m² | - |
| 1778064639 | 13.89° C | 98% | 1016.2 hPa | 0 mm | - | 10 W/m² | - |
| 1778064034 | 13.89° C | 98% | 1016.1 hPa | 0 mm | - | 4 W/m² | - |
| 1778063428 | 13.89° C | 98% | 1016.3 hPa | 0 mm | - | 0 W/m² | - |
| 1778062520 | 13.89° C | 98% | 1016.4 hPa | 0 mm | - | 0 W/m² | - |
| 1778062217 | 13.89° C | 98% | 1016 hPa | 0 mm | - | 0 W/m² | - |
| 1778061915 | 13.89° C | 97% | 1016.1 hPa | 0 mm | - | 0 W/m² | - |
| 1778061312 | 13.89° C | 97% | 1016.1 hPa | 0 mm | - | 0 W/m² | - |
| 1778059192 | 13.89° C | 97% | 1016 hPa | 0 mm | - | 0 W/m² | - |
| 1778058891 | 13.89° C | 97% | 1016.1 hPa | 0 mm | - | 0 W/m² | - |
| 1778058588 | 13.89° C | 97% | 1016 hPa | 0 mm | - | 0 W/m² | - |
| 1778057679 | 13.89° C | 97% | 1016.1 hPa | 0 mm | - | 0 W/m² | - |
| 1778057375 | 13.89° C | 97% | 1016 hPa | 0 mm | - | 0 W/m² | - |
| 1778057072 | 13.89° C | 97% | 1016 hPa | 0 mm | - | 0 W/m² | - |
| 1778056768 | 13.89° C | 97% | 1016.1 hPa | 0 mm | - | 0 W/m² | - |
| 1778055860 | 13.89° C | 97% | 1016.7 hPa | 0 mm | - | 0 W/m² | - |
| 1778055555 | 13.89° C | 97% | 1016.6 hPa | 0 mm | - | 0 W/m² | - |
* Rain latest hour (hover to see other rain measurements)
** Current wind speed in m/s (hover to see current wind gust speed)